QPF
0.00 0.00 0.00 0.00 0.00 0.00 0.00 0.00 0.00 0.00 0.00 0.00 0.00 0.00 0.00 0.00 0.00 0.00 0.00 0.00 0.00 0.00 0.00 0.00 0.00 0.00 0.00 0.00 0.00 0.00 0.00 0.00 0.00 0.00 0.00 0.00 0.00 0.00 0.00 0.00 0.00 0.00
0.00 0.00 0.00 0.00 0.00 0.00 0.00 0.00 0.00 0.00 0.00 0.00 0.00 0.00 0.00 0.00 0.00 0.00 0.00 0.00 0.00 0.00 0.00 0.00 0.00 0.00 0.00 0.00 0.00 0.00 0.00 0.00 0.00 0.00 0.00 0.00 0.00 0.00 0.00 0.00 0.00 0.00
0.00 0.00 0.00 0.00 0.00 0.00 0.00 0.00 0.00 0.00 0.00 0.00 0.00 0.00 0.00 0.00 0.00 0.00 0.00 0.00 0.00 0.00 0.00 0.00 0.00 0.00 0.00 0.00 0.00 0.00 0.00 0.00 0.00 0.00 0.00 0.00 0.00 0.00 0.00 0.00 0.00 0.00
0.00 0.00 0.00 0.00 0.00 0.00 0.00 0.00 0.00 0.00 0.00 0.00 0.00 0.00 0.00 0.00 0.00 0.00 0.00 0.00 0.00 0.00 0.00 0.00 0.00 0.00 0.00 0.00 0.00 0.00 0.00 0.00 0.00 0.00 0.00 0.00 0.00 0.00 0.00 0.00 0.00 0.00
0.00 0.00 0.00 0.00 0.00 0.00 0.00 0.00 0.00 0.00 0.00 0.00 0.00 0.00 0.00 0.00 0.00 0.00 0.00 0.00 0.00 0.00 0.00 0.00 0.00 0.00 0.00 0.00 0.00 0.00 0.00 0.00 0.00 0.00 0.00 0.00 0.00 0.00 0.00 0.00 0.00 0.00
0.00 0.00 0.00 0.00 0.00 0.00 0.00 0.00 0.00 0.00 0.00 0.00 0.00 0.00 0.00 0.00 0.00 0.00 0.00 0.00 0.00 0.00 0.00 0.00 0.00 0.00 0.00 0.00 0.00 0.00 0.00 0.00 0.00 0.00 0.00 0.00 0.00 0.00 0.00 0.00 0.00 0.00
0.00 0.01 0.01 0.01 0.01 0.00 0.00 0.00 0.00 0.00 0.00 0.00 0.00 0.00 0.00 0.00 0.00 0.00 0.00 0.00 0.00 0.00 0.00 0.00 0.00 0.00 0.00 0.00 0.00 0.00 0.00 0.00 0.00 0.00 0.00 0.00 0.00 0.00 0.00 0.00 0.00 0.00
0.09 0.01 0.02 0.06 0.04 0.00 0.00 0.00 0.00 0.00 0.00 0.00 0.00 0.00 0.00 0.00 0.00 0.00 0.00 0.00 0.00 0.00 0.00 0.00 0.00 0.00 0.00 0.00 0.00 0.00 0.00 0.00 0.00 0.00 0.00 0.00 0.00 0.00 0.00 0.00 0.00 0.00
0.23 0.19 0.17 0.11 0.04 0.00 0.00 0.00 0.00 0.00 0.00 0.00 0.00 0.00 0.00 0.00 0.00 0.00 0.00 0.00 0.00 0.00 0.00 0.00 0.00 0.00 0.00 0.00 0.00 0.00 0.00 0.00 0.00 0.00 0.00 0.00 0.00 0.00 0.00 0.00 0.00 0.00
0.20 0.16 0.20 0.38 0.09 0.00 0.00 0.00 0.00 0.00 0.00 0.00 0.00 0.00 0.00 0.00 0.00 0.00 0.00 0.00 0.00 0.00 0.00 0.00 0.00 0.00 0.00 0.00 0.00 0.00 0.00 0.00 0.00 0.00 0.00 0.00 0.00 0.00 0.00 0.00 0.00 0.00
0.13 0.10 0.11 0.07 0.01 0.00 0.00 0.00 0.00 0.00 0.00 0.00 0.00 0.00 0.00 0.00 0.00 0.00 0.00 0.00 0.00 0.00 0.00 0.00 0.00 0.00 0.00 0.00 0.00 0.00 0.00 0.00 0.00 0.00 0.00 0.00 0.00 0.00 0.00 0.00 0.00 0.00
0.09 0.15 0.08 0.03 0.00 0.00 0.00 0.00 0.00 0.00 0.00 0.00 0.00 0.00 0.00 0.00 0.00 0.00 0.00 0.00 0.00 0.00 0.00 0.00 0.00 0.00 0.00 0.00 0.00 0.00 0.00 0.00 0.00 0.00 0.00 0.00 0.00 0.00 0.00 0.00 0.00 0.00
0.04 0.05 0.12 0.13 0.07 0.02 0.00 0.00 0.00 0.00 0.00 0.00 0.00 0.00 0.00 0.00 0.00 0.00 0.00 0.00 0.00 0.00 0.00 0.00 0.00 0.00 0.00 0.00 0.00 0.00 0.00 0.00 0.00 0.00 0.00 0.00 0.00 0.00 0.00 0.00 0.00 0.00
0.00 0.01 0.03 0.06 0.10 0.07 0.02 0.00 0.00 0.00 0.00 0.00 0.00 0.00 0.00 0.00 0.00 0.00 0.00 0.00 0.00 0.00 0.00 0.00 0.00 0.00 0.00 0.00 0.00 0.00 0.00 0.00 0.00 0.00 0.00 0.00 0.00 0.00 0.00 0.00 0.00 0.00
0.00 0.00 0.00 0.00 0.02 0.04 0.04 0.02 0.00 0.00 0.00 0.00 0.00 0.00 0.00 0.00 0.00 0.00 0.00 0.00 0.00 0.00 0.00 0.00 0.00 0.00 0.00 0.00 0.00 0.00 0.00 0.00 0.00 0.00 0.00 0.00 0.00 0.00 0.00 0.00 0.00 0.00
0.00 0.00 0.00 0.00 0.00 0.00 0.31 0.49 0.36 0.17 0.00 0.00 0.00 0.00 0.00 0.00 0.00 0.00 0.00 0.00 0.00 0.00 0.00 0.00 0.00 0.00 0.00 0.00 0.00 0.00 0.00 0.00 0.00 0.00 0.00 0.00 0.00 0.00 0.00 0.00 0.00 0.00
0.00 0.00 0.00 0.00 0.00 0.11 0.32 0.53 0.32 0.03 0.02 0.02 0.01 0.00 0.00 0.00 0.00 0.00 0.00 0.00 0.00 0.00 0.00 0.00 0.00 0.00 0.00 0.00 0.00 0.00 0.00 0.00 0.00 0.00 0.00 0.00 0.00 0.00 0.00 0.00 0.00 0.00
0.00 0.00 0.00 0.00 0.00 0.14 0.14 0.08 0.01 0.00 0.00 0.02 0.03 0.01 0.00 0.00 0.00 0.00 0.00 0.00 0.00 0.00 0.00 0.00 0.00 0.00 0.00 0.00 0.00 0.00 0.00 0.00 0.00 0.00 0.26 0.12 0.11 0.07 0.06 0.01 0.00 0.00
0.00 0.00 0.00 0.00 0.00 0.00 0.01 0.01 0.01 0.00 0.00 0.00 0.00 0.01 0.01 0.00 0.00 0.00 0.00 0.00 0.00 0.00 0.00 0.00 0.00 0.00 0.00 0.00 0.00 0.00 0.00 0.00 0.00 0.00 0.01 0.01 0.03 0.08 0.12 0.02 0.02 0.00
0.00 0.00 0.00 0.00 0.00 0.00 0.00 0.00 0.00 0.00 0.00 0.00 0.00 0.00 0.00 0.00 0.01 0.00 0.00 0.00 0.00 0.00 0.00 0.00 0.00 0.00 0.00 0.00 0.00 0.00 0.00 0.00 0.00 0.00 0.00 0.00 0.00 0.00 0.01 0.02 0.04 0.03
0.00 0.00 0.00 0.00 0.00 0.00 0.00 0.00 0.00 0.00 0.00 0.00 0.01 0.01 0.00 0.00 0.00 0.00 0.00 0.00 0.00 0.00 0.00 0.00 0.00 0.00 0.00 0.00 0.00 0.00 0.00 0.00 0.00 0.00 0.00 0.00 0.00 0.00 0.01 0.01 0.03 0.01
0.00 0.00 0.00 0.00 0.00 0.00 0.00 0.00 0.00 0.00 0.00 0.00 0.00 0.00 0.00 0.00 0.00 0.00 0.00 0.01 0.03 0.00 0.00 0.00 0.00 0.00 0.00 0.00 0.00 0.00 0.00 0.00 0.00 0.00 0.00 0.00 0.00 0.00 0.00 0.00 0.00 0.00
0.00 0.00 0.00 0.00 0.00 0.00 0.00 0.00 0.00 0.00 0.00 0.00 0.00 0.00 0.00 0.01 0.02 0.10 0.03 0.05 0.02 0.01 0.00 0.00 0.00 0.00 0.00 0.00 0.00 0.00 0.00 0.00 0.00 0.00 0.00 0.00 0.00 0.00 0.00 0.00 0.00 0.00
0.00 0.00 0.00 0.00 0.00 0.00 0.00 0.00 0.00 0.00 0.00 0.00 0.00 0.00 0.00 0.00 0.00 0.08 0.08 0.01 0.02 0.01 0.11 0.02 0.00 0.00 0.00 0.00 0.00 0.00 0.00 0.01 0.01 0.00 0.00 0.00 0.00 0.00 0.00 0.00 0.00 0.00
0.00 0.00 0.00 0.00 0.00 0.00 0.01 0.01 0.01 0.01 0.00 0.00 0.01 0.00 0.00 0.00 0.00 0.00 0.00 0.01 0.01 0.02 0.00 0.02 0.01 0.01 0.00 0.00 0.01 0.01 0.00 0.00 0.01 0.00 0.01 0.00 0.00 0.00 0.03 0.15 0.04 0.01
0.00 0.00 0.00 0.01 0.01 0.00 0.01 0.01 0.01 0.01 0.00 0.00 0.00 0.01 0.00 0.01 0.02 0.01 0.01 0.00 0.00 0.02 0.12 0.02 0.00 0.23 0.58 0.49 0.48 0.00 0.00 0.06 0.13 0.27 0.19 0.24 0.23 0.30 0.26 0.09 0.10 0.10
MSLP
1014.43 1014.63 1014.87 1015.07 1015.19 1015.23 1015.39 1015.59 1015.63 1015.75 1015.79 1015.79 1015.99 1015.99 1016.03 1015.95 1015.95 1016.07 1016.15 1016.23 1016.31 1016.39 1016.43 1016.51 1016.55 1016.63 1016.63 1016.67 1016.75 1016.83 1016.87 1016.91 1016.87 1016.79 1016.87 1016.91 1016.99 1016.95 1017.07 1017.03 1017.03 1017.03
1014.19 1014.35 1014.51 1014.67 1014.87 1014.91 1015.03 1015.11 1015.27 1015.43 1015.51 1015.51 1015.51 1015.55 1015.59 1015.67 1015.71 1015.83 1015.99 1016.11 1016.11 1016.19 1016.19 1016.31 1016.35 1016.39 1016.51 1016.59 1016.63 1016.75 1016.79 1016.75 1016.83 1016.51 1016.75 1016.79 1016.71 1016.75 1016.79 1016.79 1016.79 1016.71
1014.07 1014.31 1014.47 1014.63 1014.67 1014.71 1014.75 1014.75 1014.91 1015.07 1015.19 1015.15 1015.15 1015.23 1015.35 1015.31 1015.51 1015.59 1015.71 1015.83 1015.99 1015.99 1016.03 1016.07 1016.15 1016.19 1016.31 1016.39 1016.43 1016.59 1016.63 1016.67 1016.71 1016.43 1016.55 1016.59 1016.47 1016.59 1016.51 1016.47 1016.55 1016.59
1013.87 1014.03 1014.31 1014.43 1014.43 1014.47 1014.43 1014.63 1014.75 1014.83 1014.91 1015.07 1015.07 1014.95 1014.99 1015.03 1015.19 1015.39 1015.51 1015.59 1015.75 1015.79 1015.79 1015.87 1015.95 1016.03 1016.11 1016.19 1016.31 1016.47 1016.43 1016.47 1016.35 1016.35 1016.47 1016.43 1016.39 1016.35 1016.35 1016.35 1016.39 1016.47
1013.71 1013.83 1013.95 1014.11 1014.19 1014.23 1014.31 1014.47 1014.59 1014.71 1014.79 1014.75 1014.75 1014.71 1014.83 1014.91 1015.03 1015.15 1015.27 1015.43 1015.47 1015.59 1015.63 1015.71 1015.75 1015.87 1015.91 1016.07 1016.15 1016.35 1016.31 1016.39 1016.31 1016.35 1016.51 1016.51 1016.27 1016.27 1016.23 1016.31 1016.43 1016.51
1013.55 1013.59 1013.67 1013.79 1013.87 1014.03 1014.19 1014.23 1014.23 1014.35 1014.51 1014.63 1014.63 1014.55 1014.55 1014.55 1014.71 1014.83 1014.95 1015.15 1015.19 1015.31 1015.43 1015.47 1015.63 1015.63 1015.71 1015.83 1015.99 1016.11 1016.15 1016.27 1016.15 1016.27 1016.43 1016.47 1016.27 1016.11 1016.15 1016.19 1016.35 1016.43
1013.55 1013.59 1013.59 1013.51 1013.63 1013.71 1013.83 1013.83 1013.87 1013.95 1014.07 1014.11 1014.23 1014.43 1014.35 1014.47 1014.51 1014.55 1014.63 1014.75 1014.87 1015.03 1015.19 1015.31 1015.43 1015.47 1015.43 1015.59 1015.79 1015.95 1015.95 1015.99 1016.03 1016.15 1016.27 1016.19 1016.15 1016.19 1016.07 1016.15 1016.19 1016.27
1013.39 1013.31 1013.39 1013.43 1013.51 1013.51 1013.63 1013.55 1013.59 1013.71 1013.79 1013.91 1014.15 1014.07 1014.07 1014.19 1014.23 1014.19 1014.23 1014.39 1014.59 1014.75 1014.87 1014.95 1015.07 1015.15 1015.19 1015.35 1015.67 1015.79 1015.83 1015.75 1015.91 1015.99 1016.07 1016.03 1016.03 1016.19 1016.03 1015.95 1016.03 1016.23
1013.19 1013.31 1013.39 1013.51 1013.63 1013.59 1013.59 1013.47 1013.31 1013.27 1013.31 1013.67 1013.83 1013.83 1013.75 1013.83 1013.95 1013.95 1014.03 1014.15 1014.31 1014.43 1014.55 1014.63 1014.71 1014.83 1014.87 1015.11 1015.31 1015.51 1015.63 1015.63 1015.59 1015.71 1015.87 1015.91 1015.99 1015.99 1015.87 1015.75 1015.99 1016.07
1013.27 1013.23 1013.35 1013.47 1013.67 1013.63 1013.67 1013.55 1013.43 1013.31 1013.07 1013.19 1013.31 1013.43 1013.59 1013.51 1013.55 1013.71 1013.87 1014.07 1014.23 1014.27 1014.31 1014.35 1014.43 1014.51 1014.59 1014.75 1014.91 1015.07 1015.27 1015.35 1015.39 1015.47 1015.47 1015.55 1015.63 1015.67 1015.63 1015.71 1015.79 1015.95
1013.19 1013.19 1013.35 1013.39 1013.47 1013.51 1013.55 1013.43 1013.39 1013.35 1013.19 1013.11 1013.07 1013.19 1013.19 1013.27 1013.35 1013.35 1013.59 1013.79 1013.99 1014.03 1014.11 1014.19 1014.19 1014.23 1014.39 1014.47 1014.55 1014.59 1014.75 1014.91 1015.03 1015.15 1015.19 1015.23 1015.23 1015.27 1015.31 1015.43 1015.55 1015.67
1013.15 1013.11 1013.19 1013.23 1013.27 1013.27 1013.31 1013.27 1013.19 1013.15 1013.11 1012.99 1012.87 1012.99 1012.95 1012.95 1013.07 1013.11 1013.19 1013.43 1013.51 1013.59 1013.67 1013.75 1013.83 1013.95 1014.07 1014.15 1014.19 1014.27 1014.43 1014.55 1014.63 1014.75 1014.83 1014.91 1014.91 1014.95 1015.03 1015.07 1015.23 1015.23
1013.11 1013.11 1013.07 1013.07 1013.03 1012.99 1012.95 1012.91 1012.87 1012.79 1012.79 1012.83 1012.71 1012.75 1012.79 1012.83 1012.79 1012.87 1012.83 1012.95 1013.07 1013.19 1013.35 1013.43 1013.51 1013.63 1013.79 1013.87 1013.95 1014.03 1014.19 1014.35 1014.43 1014.47 1014.51 1014.59 1014.59 1014.59 1014.63 1014.71 1014.79 1014.83
1012.99 1012.91 1012.91 1012.83 1012.71 1012.67 1012.63 1012.59 1012.59 1012.59 1012.59 1012.51 1012.51 1012.71 1012.79 1012.75 1012.71 1012.63 1012.59 1012.63 1012.75 1012.87 1012.95 1013.03 1013.23 1013.39 1013.51 1013.59 1013.67 1013.79 1013.95 1014.07 1014.11 1014.23 1014.31 1014.35 1014.35 1014.35 1014.35 1014.43 1014.47 1014.51
1012.83 1012.71 1012.63 1012.59 1012.51 1012.47 1012.51 1012.55 1012.59 1012.59 1012.55 1012.47 1012.47 1012.51 1012.47 1012.51 1012.51 1012.47 1012.51 1012.55 1012.51 1012.59 1012.71 1012.79 1012.99 1013.07 1013.07 1013.23 1013.43 1013.51 1013.59 1013.79 1013.83 1013.95 1014.03 1014.15 1014.19 1014.15 1014.11 1014.15 1014.23 1014.27
1012.91 1012.75 1012.63 1012.51 1012.51 1012.51 1012.55 1012.59 1012.55 1012.59 1012.55 1012.51 1012.51 1012.39 1012.35 1012.31 1012.35 1012.43 1012.51 1012.55 1012.59 1012.51 1012.51 1012.59 1012.71 1012.63 1012.59 1012.67 1012.75 1012.99 1013.23 1013.35 1013.47 1013.55 1013.67 1013.79 1013.91 1013.99 1014.03 1014.03 1013.99 1014.03
1013.07 1013.03 1012.83 1012.75 1012.55 1012.47 1012.55 1012.63 1012.59 1012.55 1012.55 1012.51 1012.47 1012.47 1012.47 1012.39 1012.39 1012.47 1012.39 1012.35 1012.43 1012.43 1012.47 1012.43 1012.39 1012.31 1012.23 1012.35 1012.51 1012.55 1012.71 1012.99 1013.19 1013.27 1013.27 1013.43 1013.55 1013.71 1013.83 1013.83 1013.83 1013.79
1013.07 1013.03 1013.03 1012.95 1012.79 1012.75 1012.67 1012.55 1012.43 1012.39 1012.43 1012.43 1012.43 1012.43 1012.35 1012.27 1012.35 1012.35 1012.31 1012.23 1012.19 1012.19 1012.27 1012.27 1012.19 1012.03 1012.07 1012.11 1012.19 1012.27 1012.35 1012.47 1012.63 1012.87 1012.99 1013.11 1013.19 1013.27 1013.31 1013.43 1013.59 1013.67
1013.23 1013.11 1013.03 1012.95 1012.87 1012.79 1012.75 1012.67 1012.51 1012.35 1012.27 1012.27 1012.35 1012.23 1012.19 1012.27 1012.27 1012.23 1012.19 1012.11 1012.11 1012.19 1012.19 1012.03 1011.99 1011.87 1011.95 1012.03 1012.03 1012.03 1012.11 1012.15 1012.19 1012.39 1012.63 1012.75 1012.79 1012.87 1012.99 1013.11 1013.31 1013.51
1013.43 1013.27 1013.15 1012.99 1012.79 1012.71 1012.71 1012.71 1012.71 1012.59 1012.31 1012.07 1012.03 1011.99 1012.07 1012.11 1012.07 1012.07 1012.03 1012.03 1012.03 1012.07 1012.07 1011.99 1011.91 1011.79 1011.79 1011.83 1011.83 1011.87 1011.95 1012.11 1012.11 1012.15 1012.23 1012.27 1012.35 1012.43 1012.59 1012.79 1012.95 1013.15
1013.51 1013.39 1013.23 1013.03 1012.83 1012.71 1012.71 1012.71 1012.67 1012.59 1012.43 1012.23 1012.07 1011.99 1011.95 1011.95 1011.91 1011.91 1011.83 1011.83 1011.87 1011.87 1011.95 1011.91 1011.79 1011.71 1011.79 1011.79 1011.71 1011.67 1011.67 1011.91 1011.95 1011.95 1012.07 1012.11 1012.07 1012.07 1012.19 1012.31 1012.47 1012.59
1013.35 1013.31 1013.15 1012.99 1012.79 1012.59 1012.59 1012.63 1012.59 1012.51 1012.47 1012.23 1012.11 1011.95 1011.71 1011.63 1011.59 1011.63 1011.75 1011.75 1011.75 1011.75 1011.83 1011.87 1011.67 1011.63 1011.63 1011.63 1011.59 1011.55 1011.63 1011.75 1011.75 1011.83 1011.95 1012.03 1012.11 1012.07 1012.03 1011.99 1012.03 1012.19
1013.31 1013.23 1013.11 1012.91 1012.75 1012.67 1012.51 1012.43 1012.35 1012.23 1012.15 1012.03 1012.07 1011.87 1011.79 1011.67 1011.59 1011.55 1011.47 1011.55 1011.59 1011.59 1011.71 1011.71 1011.59 1011.51 1011.55 1011.51 1011.47 1011.47 1011.51 1011.59 1011.67 1011.71 1011.79 1011.87 1011.79 1011.71 1011.71 1011.79 1011.83 1011.83
1013.35 1013.27 1013.15 1012.95 1012.83 1012.75 1012.59 1012.39 1012.19 1012.03 1011.99 1011.79 1011.83 1011.79 1011.71 1011.55 1011.43 1011.39 1011.31 1011.31 1011.43 1011.51 1011.55 1011.67 1011.59 1011.43 1011.43 1011.43 1011.47 1011.43 1011.35 1011.43 1011.47 1011.63 1011.67 1011.67 1011.59 1011.47 1011.63 1011.87 1012.03 1011.91
1013.35 1013.23 1013.15 1013.07 1012.95 1012.79 1012.59 1012.43 1012.23 1011.95 1011.71 1011.63 1011.51 1011.43 1011.43 1011.31 1011.27 1011.31 1011.27 1011.23 1011.31 1011.39 1011.35 1011.43 1011.51 1011.39 1011.43 1011.51 1011.51 1011.47 1011.39 1011.31 1011.39 1011.55 1011.71 1011.63 1011.59 1011.63 1011.67 1011.79 1011.79 1012.03
1013.39 1013.31 1013.19 1013.11 1013.03 1012.79 1012.55 1012.35 1012.11 1011.95 1011.75 1011.59 1011.43 1011.19 1011.11 1011.11 1011.11 1011.11 1011.19 1011.43 1011.51 1011.47 1011.51 1011.63 1011.67 1011.59 1011.55 1011.71 1011.79 1011.63 1011.43 1011.35 1011.31 1011.39 1011.47 1011.31 1011.27 1011.43 1011.51 1011.35 1011.51 1011.67
Thickness
5761 5759 5757 5755 5754 5754 5753 5753 5754 5754 5754 5755 5755 5756 5757 5757 5759 5758 5758 5759 5759 5760 5760 5760 5761 5761 5762 5762 5762 5762 5762 5763 5764 5766 5766 5766 5766 5767 5766 5767 5767 5767
5762 5760 5759 5758 5757 5757 5756 5756 5756 5756 5757 5758 5759 5759 5760 5761 5761 5761 5760 5760 5760 5761 5761 5762 5762 5762 5762 5762 5762 5762 5763 5764 5765 5767 5767 5767 5768 5768 5768 5768 5769 5769
5763 5760 5759 5759 5760 5759 5759 5759 5758 5759 5760 5760 5762 5763 5764 5764 5764 5763 5762 5762 5761 5762 5763 5763 5763 5763 5763 5763 5763 5763 5763 5763 5765 5768 5767 5768 5769 5769 5770 5770 5769 5770
5763 5761 5760 5759 5760 5761 5761 5760 5759 5760 5761 5762 5764 5765 5766 5766 5766 5765 5764 5764 5764 5764 5764 5764 5764 5764 5764 5764 5764 5763 5764 5765 5765 5767 5767 5767 5769 5769 5770 5770 5769 5770
5763 5763 5762 5760 5760 5761 5761 5760 5760 5760 5762 5762 5764 5766 5767 5767 5767 5767 5766 5766 5766 5765 5765 5765 5765 5765 5765 5765 5765 5764 5765 5765 5766 5766 5765 5766 5769 5769 5770 5770 5769 5769
5763 5762 5763 5762 5762 5762 5761 5761 5762 5762 5763 5763 5765 5766 5767 5769 5768 5768 5768 5767 5768 5767 5766 5766 5766 5766 5766 5766 5765 5765 5765 5765 5766 5766 5765 5766 5768 5769 5769 5769 5768 5768
5761 5761 5763 5763 5764 5763 5762 5764 5764 5764 5765 5765 5766 5767 5767 5769 5769 5770 5770 5769 5769 5768 5767 5767 5767 5767 5768 5767 5766 5765 5765 5766 5766 5766 5765 5767 5768 5767 5769 5768 5768 5767
5762 5762 5762 5762 5763 5763 5762 5764 5765 5766 5767 5766 5766 5767 5768 5769 5769 5771 5771 5770 5770 5769 5769 5769 5768 5768 5769 5768 5766 5766 5766 5766 5766 5766 5765 5767 5767 5766 5768 5768 5767 5767
5761 5761 5761 5760 5761 5761 5761 5762 5764 5766 5768 5767 5766 5767 5769 5770 5771 5771 5772 5771 5771 5770 5770 5770 5770 5770 5770 5769 5767 5766 5766 5766 5766 5766 5766 5766 5766 5766 5768 5768 5767 5766
5759 5759 5759 5759 5758 5758 5759 5760 5762 5764 5767 5768 5768 5768 5769 5770 5772 5772 5772 5771 5770 5770 5770 5770 5770 5770 5770 5769 5769 5768 5767 5767 5767 5767 5767 5767 5767 5767 5768 5767 5766 5766
5757 5757 5757 5757 5757 5757 5758 5759 5761 5763 5764 5767 5768 5768 5769 5770 5771 5773 5773 5772 5771 5771 5771 5771 5771 5771 5771 5770 5770 5770 5769 5768 5768 5767 5767 5767 5767 5768 5768 5767 5766 5766
5755 5756 5756 5756 5756 5757 5759 5761 5762 5763 5764 5766 5767 5769 5770 5770 5771 5772 5773 5773 5772 5772 5772 5772 5772 5772 5771 5771 5771 5770 5769 5769 5768 5768 5767 5768 5768 5768 5768 5768 5767 5767
5753 5754 5754 5755 5756 5758 5760 5762 5764 5765 5765 5767 5767 5768 5769 5770 5771 5772 5773 5773 5773 5773 5773 5772 5773 5772 5771 5771 5770 5770 5769 5768 5768 5768 5768 5768 5768 5768 5768 5768 5769 5769
5752 5753 5754 5756 5757 5759 5761 5762 5763 5764 5764 5766 5767 5767 5767 5768 5770 5771 5773 5773 5773 5772 5773 5772 5772 5771 5771 5771 5770 5770 5769 5768 5767 5767 5767 5767 5767 5768 5769 5768 5768 5769
5751 5752 5754 5756 5758 5759 5760 5760 5760 5761 5761 5763 5765 5765 5766 5767 5769 5770 5771 5772 5772 5772 5772 5772 5771 5771 5772 5771 5770 5770 5769 5768 5768 5767 5766 5766 5767 5767 5767 5768 5767 5768
5748 5750 5752 5754 5757 5757 5757 5756 5756 5757 5759 5760 5762 5763 5764 5766 5767 5768 5768 5769 5770 5770 5771 5771 5771 5772 5772 5772 5771 5770 5769 5768 5768 5768 5767 5767 5766 5766 5766 5767 5767 5767
5745 5747 5748 5750 5753 5753 5752 5752 5754 5755 5757 5758 5759 5760 5761 5763 5764 5765 5766 5767 5768 5768 5769 5770 5771 5772 5772 5771 5771 5770 5770 5769 5768 5767 5768 5767 5767 5766 5765 5766 5766 5766
5742 5743 5744 5746 5748 5748 5748 5750 5751 5753 5754 5755 5756 5756 5758 5760 5761 5762 5764 5765 5766 5766 5767 5768 5769 5770 5770 5770 5770 5770 5770 5769 5768 5768 5768 5767 5766 5766 5766 5766 5765 5765
5738 5740 5741 5743 5744 5745 5745 5746 5747 5749 5751 5752 5753 5754 5755 5757 5758 5760 5761 5762 5763 5764 5764 5765 5767 5767 5768 5768 5769 5769 5769 5769 5769 5769 5768 5767 5768 5767 5766 5766 5765 5764
5735 5736 5738 5739 5741 5742 5742 5742 5743 5744 5747 5748 5750 5751 5753 5754 5756 5757 5758 5759 5760 5761 5761 5762 5764 5764 5765 5766 5766 5767 5767 5767 5768 5768 5768 5768 5769 5768 5767 5766 5765 5764
5732 5732 5734 5736 5739 5739 5739 5739 5740 5741 5743 5745 5746 5748 5750 5752 5753 5755 5756 5756 5757 5757 5758 5759 5761 5761 5762 5763 5764 5765 5765 5765 5766 5767 5767 5767 5767 5768 5767 5766 5766 5765
5729 5730 5731 5733 5736 5737 5738 5737 5738 5739 5740 5742 5743 5745 5747 5749 5750 5751 5752 5752 5753 5754 5754 5756 5757 5758 5759 5760 5761 5762 5762 5762 5762 5763 5763 5763 5764 5765 5765 5765 5766 5765
5727 5727 5729 5730 5732 5734 5735 5736 5736 5737 5738 5740 5741 5743 5744 5745 5747 5748 5749 5749 5749 5750 5752 5753 5754 5755 5756 5757 5758 5758 5758 5758 5758 5759 5760 5760 5761 5763 5763 5764 5764 5764
5724 5724 5725 5726 5728 5729 5731 5732 5734 5735 5737 5739 5740 5741 5742 5743 5744 5745 5746 5746 5747 5748 5748 5750 5751 5752 5752 5753 5753 5754 5754 5754 5754 5754 5755 5757 5759 5761 5760 5758 5757 5757
5720 5720 5721 5722 5723 5725 5727 5728 5731 5733 5735 5737 5739 5740 5741 5742 5742 5742 5742 5743 5744 5745 5745 5746 5746 5747 5748 5747 5747 5748 5749 5750 5750 5750 5752 5754 5756 5756 5756 5755 5755 5753
5716 5717 5717 5718 5719 5721 5723 5725 5727 5729 5731 5734 5736 5738 5739 5740 5740 5741 5740 5740 5739 5740 5740 5740 5740 5741 5742 5741 5741 5742 5743 5745 5746 5748 5751 5752 5752 5752 5752 5751 5751 5750